Tracking 23758 objects as of 27-Oct-2021
HD Live streaming from Space Station
objects crossing your sky now

ATLAS 2AS CENTAUR R/B

Track ATLAS 2AS CENTAUR R/B now!


NORAD ID: 24937
Int'l Code: 1997-050B
Perigee: 277.1 km
Apogee: 37,588.9 km
Inclination: 18.2 °
Period: 667.6 minutes
Semi major axis: 25303 km
RCS: 13.7884 m2 (large)
Launch date: September 4, 1997
Source: United States (US)
Launch site: AIR FORCE EASTERN TEST RANGE (AFETR)

Note: This is a ROCKET BODY
aabbcc
Your satellite tracking list
Your tracking list is empty




NASA's NSSDC Master Catalog

Two Line Element Set (TLE):
1 24937U 97050B   21298.72997375  .00000630  00000-0  29392-3 0  9994
2 24937  18.1989 226.3777 7372705 244.1026  25.9798  2.15684899177699
Source of the keplerian elements: AFSPC